WA6MEM Weather Reports


time (UTC)temp
C
wind
direction
speed
KPH
gust
KPH
rain 1hr
cm
rain 24hr
cm
rain mn
cm
humidity
%
barometer
mb
20260903143508 16 153 0.0 0.0 0.00 0.00 0.03 97 1012.7
20260903143009 16 221 1.6 0.0 0.00 0.00 0.03 97 1012.7
20260903142508 16 180 1.6 0.0 0.00 0.00 0.03 97 1012.5
20260903142008 15 160 0.0 0.0 0.00 0.00 0.03 97 1012.5
20260903141510 15 184 0.0 0.0 0.00 0.00 0.03 96 1012.5
20260903141008 15 169 0.0 0.0 0.00 0.00 0.03 96 1012.4
20260903140508 15 169 0.0 0.0 0.00 0.00 0.03 96 1012.4
20260903140016 15 169 0.0 0.0 0.00 0.00 0.03 96 1012.4
20260903135507 15 169 0.0 0.0 0.00 0.00 0.03 96 1012.4
20260903135011 15 169 0.0 0.0 0.00 0.00 0.03 96 1012.4
20260903134506 15 169 0.0 0.0 0.00 0.00 0.03 96 1012.4
20260903134009 15 169 0.0 0.0 0.00 0.00 0.03 96 1012.3
20260903133506 15 169 0.0 0.0 0.00 0.00 0.03 96 1012.3
20260903133006 15 169 0.0 0.0 0.00 0.00 0.03 96 1012.3
20260903132505 15 169 0.0 0.0 0.00 0.00 0.03 96 1012.4
20260903132005 15 169 0.0 0.0 0.00 0.00 0.03 96 1012.4
20260903131505 15 169 0.0 0.0 0.00 0.00 0.03 96 1012.4
20260903131005 15 169 0.0 0.0 0.00 0.00 0.03 96 1012.2
20260903130504 15 169 0.0 0.0 0.00 0.00 0.03 96 1012.2
20260903130005 15 169 0.0 0.0 0.00 0.00 0.03 96 1012.2
20260903125504 15 202 0.0 0.0 0.00 0.00 0.03 96 1012.2
20260903125006 15 202 1.6 0.0 0.00 0.00 0.03 96 1012.2
20260903124505 15 194 0.0 0.0 0.00 0.00 0.03 96 1012.2
20260903124003 15 190 1.6 0.0 0.00 0.00 0.03 96 1012.1
20260903123505 15 202 1.6 0.0 0.00 0.00 0.03 96 1012.1
20260903123003 15 175 1.6 0.0 0.00 0.00 0.03 96 1012.1
20260903122503 15 190 1.6 0.0 0.00 0.00 0.03 96 1012.1
20260903122002 15 190 1.6 0.0 0.00 0.00 0.03 96 1012.1
20260903121502 15 153 0.0 0.0 0.00 0.00 0.03 96 1012.1
20260903121001 15 196 0.0 0.0 0.00 0.00 0.03 96 1012.1
20260903120503 15 196 0.0 0.0 0.00 0.00 0.03 96 1012.1
20260903120002 16 196 1.6 0.0 0.00 0.00 0.03 96 1012.1
20260903115600 16 196 1.6 0.0 0.00 0.00 0.03 96 1012.1
20260903115100 16 205 1.6 0.0 0.00 0.00 0.03 96 1012.1
20260903114600 16 152 1.6 0.0 0.00 0.00 0.03 96 1012.1
20260903114058 16 197 1.6 0.0 0.00 0.00 0.03 96 1012.3
20260903113600 16 154 1.6 0.0 0.00 0.00 0.03 96 1012.3
20260903113100 16 188 1.6 0.0 0.00 0.00 0.03 96 1012.3
20260903112603 16 184 1.6 0.0 0.00 0.00 0.03 96 1012.3
20260903112058 16 163 1.6 0.0 0.00 0.00 0.03 96 1012.3
20260903111606 16 188 1.6 0.0 0.00 0.00 0.03 96 1012.3
20260903111058 16 183 1.6 0.0 0.00 0.00 0.03 96 1012.2
20260903110601 16 162 1.6 0.0 0.00 0.00 0.03 96 1012.2
20260903110058 16 172 1.6 0.0 0.00 0.00 0.03 95 1012.2
20260903105600 16 194 1.6 0.0 0.00 0.00 0.03 95 1012.2
20260903105057 16 161 1.6 0.0 0.00 0.00 0.03 95 1012.2
20260903104557 16 163 1.6 0.0 0.00 0.00 0.03 95 1012.2
20260903104055 16 174 3.2 0.0 0.00 0.00 0.03 95 1012.3
20260903103555 16 199 3.2 0.0 0.00 0.00 0.03 95 1012.3
20260903103057 16 206 3.2 0.0 0.00 0.00 0.03 95 1012.3
20260903102555 16 196 3.2 0.0 0.00 0.00 0.03 95 1012.4
20260903102056 16 179 3.2 0.0 0.00 0.00 0.03 95 1012.4
20260903101559 16 201 3.2 0.0 0.00 0.00 0.03 95 1012.4
20260903101053 16 175 3.2 0.0 0.00 0.00 0.03 95 1012.2
20260903100553 16 196 3.2 0.0 0.00 0.00 0.03 95 1012.2
20260903100055 16 204 3.2 0.0 0.00 0.00 0.03 95 1012.2
20260903095552 16 175 3.2 0.0 0.00 0.00 0.00 95 1012.2
20260903095052 16 211 3.2 0.0 0.00 0.00 0.00 95 1012.2
20260903094601 16 213 3.2 0.0 0.00 0.00 0.00 95 1012.2
20260903094052 16 204 3.2 0.0 0.00 0.00 0.00 95 1012.3
20260903093551 16 167 4.8 0.0 0.00 0.00 0.00 95 1012.3
20260903093103 16 178 4.8 0.0 0.00 0.00 0.00 95 1012.3
20260903092551 16 158 3.2 0.0 0.00 0.00 0.00 95 1012.4
20260903092051 16 200 3.2 0.0 0.00 0.00 0.00 95 1012.4
20260903091550 16 182 3.2 0.0 0.00 0.00 0.00 95 1012.4
20260903091050 16 198 3.2 0.0 0.00 0.00 0.00 95 1012.7
20260903090550 16 161 3.2 0.0 0.00 0.00 0.00 95 1012.7
20260903090050 16 196 3.2 0.0 0.00 0.00 0.00 95 1012.7
20260903085548 16 196 3.2 0.0 0.00 0.00 0.00 95 1012.9
20260903085049 16 190 3.2 0.0 0.00 0.00 0.00 94 1012.9
20260903084549 16 187 3.2 0.0 0.00 0.00 0.00 94 1012.9
20260903084048 16 192 3.2 0.0 0.00 0.00 0.00 94 1012.9
20260903083548 16 158 3.2 0.0 0.00 0.00 0.00 94 1012.9
20260903083053 16 197 4.8 0.0 0.00 0.00 0.00 94 1012.9
20260903082548 16 184 3.2 0.0 0.00 0.00 0.00 94 1012.9
20260903082148 16 237 3.2 0.0 0.00 0.00 0.00 94 1012.9
20260903081549 16 167 3.2 0.0 0.00 0.00 0.00 94 1012.9
20260903081048 16 143 3.2 0.0 0.00 0.00 0.00 94 1013.0
20260903080548 16 180 3.2 0.0 0.00 0.00 0.00 94 1013.0
20260903080050 16 127 3.2 0.0 0.00 0.00 0.00 94 1013.0
20260903075546 16 163 4.8 0.0 0.00 0.00 0.00 94 1012.9
20260903075045 16 205 4.8 0.0 0.00 0.00 0.00 94 1012.9
20260903074546 17 245 6.4 0.0 0.00 0.00 0.00 93 1012.9
20260903074044 17 257 6.4 0.0 0.00 0.00 0.00 93 1013.0
20260903073544 17 257 8.0 0.0 0.00 0.00 0.00 93 1013.0
20260903073044 17 294 8.0 0.0 0.00 0.00 0.00 93 1013.0
20260903072542 17 306 8.0 0.0 0.00 0.00 0.00 93 1012.9
20260903072042 17 299 8.0 0.0 0.00 0.00 0.00 93 1012.9
20260903071542 17 297 6.4 0.0 0.00 0.00 0.00 93 1012.9
20260903071040 17 256 8.0 0.0 0.00 0.00 0.00 92 1012.9
20260903070544 17 279 8.0 0.0 0.00 0.00 0.00 92 1012.9
20260903070040 17 290 6.4 0.0 0.00 0.00 0.00 92 1012.9
20260903065540 17 245 6.4 0.0 0.00 0.00 0.00 92 1013.0
20260903065039 16 229 6.4 0.0 0.00 0.00 0.00 91 1013.0
20260903064541 16 288 4.8 0.0 0.00 0.00 0.00 91 1013.0
20260903064039 16 302 4.8 0.0 0.00 0.00 0.00 92 1012.8
20260903063539 16 287 4.8 0.0 0.00 0.00 0.00 92 1012.8
20260903063039 16 160 4.8 0.0 0.00 0.00 0.00 93 1012.8
20260903062539 16 196 4.8 0.0 0.00 0.00 0.00 93 1012.9
20260903062039 16 218 4.8 0.0 0.00 0.00 0.00 93 1012.9
20260903061550 16 188 4.8 0.0 0.00 0.00 0.00 93 1012.9
20260903061038 16 180 4.8 0.0 0.00 0.00 0.00 93 1012.8
20260903060538 17 157 4.8 0.0 0.00 0.00 0.00 93 1012.8
20260903060041 17 186 4.8 0.0 0.00 0.00 0.00 93 1012.8
20260903055538 17 214 4.8 0.0 0.00 0.00 0.00 93 1012.8
20260903055037 17 177 4.8 0.0 0.00 0.00 0.00 93 1012.8
20260903054541 17 271 4.8 0.0 0.00 0.00 0.00 93 1012.8
20260903054037 17 185 6.4 0.0 0.00 0.00 0.00 93 1012.7
20260903053537 17 185 8.0 0.0 0.00 0.00 0.00 93 1012.7
20260903053038 17 275 6.4 0.0 0.00 0.00 0.00 93 1012.7
20260903052537 17 284 6.4 0.0 0.00 0.00 0.00 93 1012.8
20260903052037 17 272 8.0 0.0 0.00 0.00 0.00 93 1012.8
20260903051537 17 309 9.7 0.0 0.00 0.00 0.00 93 1012.8
20260903051036 17 308 9.7 0.0 0.00 0.00 0.00 93 1013.1
20260903050536 17 265 6.4 0.0 0.00 0.00 0.00 93 1013.1
20260903050036 17 240 8.0 0.0 0.00 0.00 0.00 92 1013.1
20260903045537 17 238 8.0 0.0 0.00 0.00 0.00 92 1013.1
20260903045041 17 271 6.4 0.0 0.00 0.00 0.00 92 1013.1
20260903044540 17 252 3.2 0.0 0.00 0.00 0.00 92 1013.1
20260903044042 17 265 1.6 0.0 0.00 0.00 0.00 91 1013.1
20260903043537 17 149 1.6 0.0 0.00 0.00 0.00 91 1013.1
20260903043042 17 79 1.6 0.0 0.00 0.00 0.00 91 1013.1
20260903042535 17 139 1.6 0.0 0.00 0.00 0.00 91 1012.9
20260903042037 17 171 3.2 0.0 0.00 0.00 0.00 91 1012.9
20260903041535 17 128 3.2 0.0 0.00 0.00 0.00 91 1012.9
20260903041035 17 157 3.2 0.0 0.00 0.00 0.00 90 1013.0
20260903040535 17 208 4.8 0.0 0.00 0.00 0.00 90 1013.0
20260903040035 17 182 4.8 0.0 0.00 0.00 0.00 90 1013.0
20260903035534 17 192 3.2 0.0 0.00 0.00 0.00 89 1012.9
20260903035034 17 146 3.2 0.0 0.00 0.00 0.00 88 1012.9
20260903034542 17 207 3.2 0.0 0.00 0.00 0.00 88 1012.9
20260903034034 16 155 3.2 0.0 0.00 0.00 0.00 88 1012.8
20260903033536 16 195 3.2 0.0 0.00 0.00 0.00 87 1012.8
20260903033033 16 147 3.2 0.0 0.00 0.00 0.00 88 1012.8
20260903032535 16 192 1.6 0.0 0.00 0.00 0.00 87 1012.8
20260903032034 17 150 1.6 0.0 0.00 0.00 0.00 87 1012.8
20260903031533 17 169 3.2 0.0 0.00 0.00 0.00 87 1012.8
20260903031034 17 195 3.2 0.0 0.00 0.00 0.00 87 1012.8
20260903030534 17 169 3.2 0.0 0.00 0.00 0.00 87 1012.8
20260903030033 17 173 3.2 0.0 0.00 0.00 0.00 87 1012.8
20260903025537 17 169 3.2 0.0 0.00 0.00 0.00 87 1012.7
20260903025033 17 207 3.2 0.0 0.00 0.00 0.00 86 1012.7
20260903024533 17 173 3.2 0.0 0.00 0.00 0.00 86 1012.7
20260903024033 17 151 1.6 0.0 0.00 0.00 0.00 85 1012.6
20260903023533 17 164 3.2 0.0 0.00 0.00 0.00 85 1012.6
20260903023031 17 182 3.2 0.0 0.00 0.00 0.00 84 1012.6
20260903022533 17 190 4.8 0.0 0.00 0.00 0.00 84 1012.6
20260903022031 17 160 6.4 0.0 0.00 0.00 0.00 84 1012.6
20260903021532 17 271 6.4 0.0 0.00 0.00 0.00 84 1012.6
20260903021031 17 269 6.4 0.0 0.00 0.00 0.00 84 1012.7
20260903020535 17 252 8.0 0.0 0.00 0.00 0.00 83 1012.7
20260903020047 17 294 6.4 0.0 0.00 0.00 0.00 81 1012.7
20260903015534 17 288 4.8 0.0 0.00 0.00 0.00 80 1012.6
20260903015030 18 295 4.8 0.0 0.00 0.00 0.00 80 1012.6
20260903014532 18 269 4.8 0.0 0.00 0.00 0.00 79 1012.6
20260903014030 18 292 3.2 0.0 0.00 0.00 0.00 79 1012.7
20260903013531 18 202 3.2 0.0 0.00 0.00 0.00 79 1012.7
20260903013030 18 194 3.2 0.0 0.00 0.00 0.00 78 1012.7
20260903012529 18 165 4.8 0.0 0.00 0.00 0.00 77 1012.6
20260903012032 19 199 4.8 0.0 0.00 0.00 0.00 76 1012.6
20260903011530 19 212 4.8 0.0 0.00 0.00 0.00 76 1012.6
20260903011029 20 223 3.2 0.0 0.00 0.00 0.00 76 1012.4
20260903010529 20 182 4.8 0.0 0.00 0.00 0.00 76 1012.4
20260903010029 20 234 4.8 0.0 0.00 0.00 0.00 74 1012.4
20260903005531 20 304 3.2 0.0 0.00 0.00 0.00 74 1012.5
20260903005032 20 213 3.2 0.0 0.00 0.00 0.00 75 1012.5
20260903004528 20 212 4.8 0.0 0.00 0.00 0.00 75 1012.5
20260903004028 20 208 4.8 0.0 0.00 0.00 0.00 76 1012.6
20260903003528 20 195 3.2 0.0 0.00 0.00 0.00 76 1012.6
20260903003028 20 223 3.2 0.0 0.00 0.00 0.00 77 1012.6
20260903002527 20 240 4.8 0.0 0.00 0.00 0.00 77 1012.5
20260903002027 20 186 4.8 0.0 0.00 0.00 0.00 78 1012.5
20260903001526 20 226 4.8 0.0 0.00 0.00 0.00 77 1012.5
20260903001028 20 232 4.8 0.0 0.00 0.00 0.00 78 1012.6
20260903000526 20 65 4.8 0.0 0.00 0.00 0.00 79 1012.6
20260903000026 20 254 4.8 0.0 0.00 0.00 0.00 79 1012.6
20260902235526 20 318 6.4 0.0 0.00 0.00 0.00 77 1012.7
20260902235025 20 192 6.4 0.0 0.00 0.00 0.00 78 1012.7
20260902234525 21 267 6.4 0.0 0.00 0.00 0.00 77 1012.7
20260902234025 21 232 4.8 0.0 0.00 0.00 0.00 76 1012.7
20260902233525 21 204 4.8 0.0 0.00 0.00 0.00 75 1012.7
20260902233025 21 199 4.8 0.0 0.00 0.00 0.00 75 1012.7
20260902232524 21 223 6.4 0.0 0.00 0.00 0.00 75 1012.7
20260902232026 21 213 4.8 0.0 0.00 0.00 0.00 75 1012.7
20260902231524 21 154 4.8 0.0 0.00 0.00 0.00 74 1012.7
20260902231024 21 273 4.8 0.0 0.00 0.00 0.00 75 1013.0
20260902230523 21 155 6.4 0.0 0.00 0.00 0.00 75 1013.0
20260902230023 21 212 4.8 0.0 0.00 0.00 0.00 75 1013.0
20260902225525 21 325 6.4 0.0 0.00 0.00 0.00 73 1013.0
20260902225028 21 314 6.4 0.0 0.00 0.00 0.00 70 1013.0
20260902224524 22 221 4.8 0.0 0.00 0.00 0.00 69 1013.0
20260902224022 22 198 4.8 0.0 0.00 0.00 0.00 67 1013.1
20260902223522 22 204 4.8 0.0 0.00 0.00 0.00 66 1013.1
20260902223028 22 153 4.8 0.0 0.00 0.00 0.00 61 1013.1
20260902222522 22 252 6.4 0.0 0.00 0.00 0.00 59 1013.3
20260902222021 22 250 4.8 0.0 0.00 0.00 0.00 59 1013.3
20260902221526 22 201 4.8 0.0 0.00 0.00 0.00 54 1013.3
20260902221021 22 206 6.4 0.0 0.00 0.00 0.00 56 1013.5
20260902220521 22 203 4.8 0.0 0.00 0.00 0.00 56 1013.5
20260902220026 23 267 4.8 0.0 0.00 0.00 0.00 56 1013.5
20260902215519 23 213 4.8 0.0 0.00 0.00 0.00 57 1013.6
20260902215018 23 263 4.8 0.0 0.00 0.00 0.00 59 1013.6
20260902214517 22 175 4.8 0.0 0.00 0.00 0.00 67 1013.6
20260902214016 22 202 4.8 0.0 0.00 0.00 0.00 68 1013.7
20260902213515 22 162 6.4 0.0 0.00 0.00 0.00 67 1013.7
20260902213016 22 161 6.4 0.0 0.00 0.00 0.00 67 1013.7
20260902212518 22 173 6.4 0.0 0.00 0.00 0.00 66 1013.9
20260902212018 22 84 4.8 0.0 0.00 0.00 0.00 67 1013.9
20260902211514 22 208 4.8 0.0 0.00 0.00 0.00 68 1013.9
20260902211016 22 238 6.4 0.0 0.00 0.00 0.00 68 1014.1
20260902210513 22 199 6.4 0.0 0.00 0.00 0.00 66 1014.1
20260902210018 22 167 8.0 0.0 0.00 0.00 0.00 66 1014.1
20260902205517 22 282 6.4 0.0 0.00 0.00 0.00 66 1014.1
20260902205012 22 218 6.4 0.0 0.00 0.00 0.00 67 1014.1
20260902204510 21 218 4.8 0.0 0.00 0.00 0.00 70 1014.1
20260902204009 21 171 4.8 0.0 0.00 0.00 0.00 71 1014.1
20260902203512 21 202 4.8 0.0 0.00 0.00 0.00 72 1014.1
20260902203010 21 200 4.8 0.0 0.00 0.00 0.00 72 1014.1
20260902202509 21 214 4.8 0.0 0.00 0.00 0.00 74 1014.2
20260902202009 21 176 4.8 0.0 0.00 0.00 0.00 73 1014.2
20260902201517 21 172 4.8 0.0 0.00 0.00 0.00 74 1014.2
20260902201008 21 205 4.8 0.0 0.00 0.00 0.00 73 1014.4
20260902200508 21 157 4.8 0.0 0.00 0.00 0.00 74 1014.4
20260902200008 21 254 4.8 0.0 0.00 0.00 0.00 74 1014.4
20260902195506 21 165 4.8 0.0 0.00 0.00 0.00 75 1014.4
20260902195006 21 163 4.8 0.0 0.00 0.00 0.00 73 1014.4
20260902194506 21 150 4.8 0.0 0.00 0.00 0.00 73 1014.4
20260902194005 21 201 4.8 0.0 0.00 0.00 0.00 74 1014.5
20260902193505 21 233 4.8 0.0 0.00 0.00 0.00 75 1014.5
20260902193005 21 202 4.8 0.0 0.00 0.00 0.00 75 1014.5
20260902192504 21 221 4.8 0.0 0.00 0.00 0.00 74 1014.8
20260902192008 21 123 4.8 0.0 0.00 0.00 0.00 74 1014.8
20260902191505 21 198 4.8 0.0 0.00 0.00 0.00 76 1014.8
20260902191004 21 184 4.8 0.0 0.00 0.00 0.00 74 1014.7
20260902190504 21 180 4.8 0.0 0.00 0.00 0.00 74 1014.7
20260902190004 21 117 4.8 0.0 0.00 0.00 0.00 74 1014.7
20260902185504 21 175 4.8 0.0 0.00 0.00 0.00 73 1014.7
20260902185006 21 198 4.8 0.0 0.00 0.00 0.00 73 1014.7
20260902184503 21 196 4.8 0.0 0.00 0.00 0.00 73 1014.7
20260902184003 21 115 4.8 0.0 0.00 0.00 0.00 72 1014.8
20260902183600 20 166 4.8 0.0 0.00 0.00 0.00 69 1014.8
20260902183100 21 128 4.8 0.0 0.00 0.00 0.00 72 1014.8
20260902182558 20 169 4.8 0.0 0.00 0.00 0.00 72 1014.8
20260902182058 20 165 4.8 0.0 0.00 0.00 0.00 75 1014.8
20260902181558 20 199 4.8 0.0 0.00 0.00 0.00 75 1014.8
20260902181056 20 175 3.2 0.0 0.00 0.00 0.00 76 1014.8
20260902180555 20 160 3.2 0.0 0.00 0.00 0.00 78 1014.8
20260902180056 20 159 3.2 0.0 0.00 0.00 0.00 80 1014.8
20260902175554 20 224 3.2 0.0 0.00 0.00 0.00 80 1015.0
20260902175054 20 184 3.2 0.0 0.00 0.00 0.00 80 1015.0
20260902174554 20 167 3.2 0.0 0.00 0.00 0.00 80 1015.0
20260902174053 20 163 3.2 0.0 0.00 0.00 0.00 80 1014.9
20260902173552 20 157 4.8 0.0 0.00 0.00 0.00 82 1014.9
20260902173051 19 150 3.2 0.0 0.00 0.00 0.00 83 1014.9
20260902172549 19 208 3.2 0.0 0.00 0.00 0.00 81 1014.8
20260902172051 19 230 3.2 0.0 0.00 0.00 0.00 82 1014.8
20260902171603 19 224 3.2 0.0 0.00 0.00 0.00 83 1014.8
20260902171048 19 183 3.2 0.0 0.00 0.00 0.00 82 1014.7
20260902170549 19 265 3.2 0.0 0.00 0.00 0.00 82 1014.7
20260902170048 19 172 3.2 0.0 0.00 0.00 0.00 83 1014.7
20260902165546 18 196 1.6 0.0 0.00 0.00 0.00 85 1014.6
20260902165045 18 115 1.6 0.0 0.00 0.00 0.00 86 1014.6
20260902164543 18 92 1.6 0.0 0.00 0.00 0.00 86 1014.6
20260902164045 18 189 3.2 0.0 0.00 0.00 0.00 87 1014.8
20260902163540 17 202 3.2 0.0 0.00 0.00 0.00 88 1014.8
20260902163040 17 186 3.2 0.0 0.00 0.00 0.00 89 1014.8
20260902162538 17 185 3.2 0.0 0.00 0.00 0.00 89 1014.7
20260902162038 17 188 3.2 0.0 0.00 0.00 0.00 90 1014.7
20260902161537 17 173 1.6 0.0 0.00 0.00 0.00 90 1014.7
20260902161037 17 188 1.6 0.0 0.00 0.00 0.00 90 1014.7
20260902160536 17 149 1.6 0.0 0.00 0.00 0.00 90 1014.7
20260902160046 17 175 1.6 0.0 0.00 0.00 0.00 91 1014.7
20260902155536 17 187 1.6 0.0 0.00 0.00 0.00 91 1014.5
20260902155040 17 44 1.6 0.0 0.00 0.00 0.00 92 1014.5
20260902154535 16 147 1.6 0.0 0.00 0.00 0.00 92 1014.5
20260902154034 16 130 1.6 0.0 0.00 0.00 0.00 93 1014.5
20260902153533 16 126 1.6 0.0 0.00 0.00 0.00 93 1014.5
20260902153034 16 176 1.6 0.0 0.00 0.00 0.00 94 1014.5
20260902152532 16 138 1.6 0.0 0.00 0.00 0.00 94 1014.5
20260902152032 16 188 1.6 0.0 0.00 0.00 0.00 94 1014.5
20260902151531 16 165 1.6 0.0 0.00 0.00 0.00 95 1014.5
20260902151034 16 200 1.6 0.0 0.00 0.00 0.00 95 1014.6
20260902150530 16 169 3.2 0.0 0.00 0.00 0.00 95 1014.6
20260902150029 16 205 1.6 0.0 0.00 0.00 0.00 95 1014.6
20260902145529 16 200 1.6 0.0 0.00 0.00 0.00 96 1014.6
20260902145031 16 169 1.6 0.0 0.00 0.00 0.00 96 1014.6
20260902144528 16 197 1.6 0.0 0.00 0.00 0.00 96 1014.6
20260902144027 16 202 1.6 0.0 0.00 0.00 0.00 96 1014.5